Location: Arbon
(43.0005°N, 0.7472°E)
Time: 16:31:43
(UTC+00:00)

Cosmos 158 Rocket - Pass Details

Date: 07 August 2020
Orbit: 698 x 794 km, 74.0° (Epoch: 23 September)

Event Time Altitude Azimuth Distance (km) Brightness Sun altitude
Rises 02:49:09 0° 336° (NNW) 3,277 7.6 -19.5°
Reaches altitude 10° 02:51:33 10° 333° (NNW) 2,354 6.8 -19.2°
Maximum altitude 02:56:50 61° 254° (WSW) 900 4.0 -18.5°
Enters shadow 03:00:27 20° 180° (S) 1,742 5.4 -18.1°
